[[{"header":{"parameterUnit":"m.s-1","parameterCategory":1,"la1":30.2991,"la2":30.254,"lo1":-89.0895,"lo2":-89.0444,"dy":0.0017,"dx":0.0017,"nx":28,"ny":28,"refTime":"2025-03-27T03:00:00:Z","depth":0,"parameterNumber":2,"parameterNumberName":"U-component_of_WINDS"},"data":[0,0,0,0,0,0,0,0,0,0,0,0,0,0,0,0,0,0,0,0,0,0,0,0,0,0,0,0,0,0,0,0,0,0,0,0,0,0,0,0,0,0,0,0,0,0,0,0,0,0,0,0,0,0,0,0,0,0,1.4599,1.46,0,1.464,1.464,1.464,1.4617,1.4615,1.4614,1.4613,1.4655,1.4657,1.4659,0,0,0,0,0,0,0,0,0,0,0,0,0,1.4501,1.4503,1.4599,1.46,1.46,1.464,1.464,1.4641,1.4617,1.4615,1.4614,1.4613,1.4654,1.4657,1.4659,0,0,0,0,0,0,0,0,0,0,0,0,0,1.4543,1.4503,1.4599,1.4593,1.4593,1.4639,1.464,1.4641,1.4617,1.4615,1.4614,1.4612,1.4653,1.4656,1.466,1.4714,0,0,1.4669,1.4671,0,0,0,0,0,0,0,0,1.454,1.4546,1.4593,1.4594,1.4594,1.4621,1.4621,1.4665,1.4617,1.4608,1.4613,1.4611,1.4645,1.4649,1.466,1.4716,1.4718,1.467,1.4672,1.4673,1.4674,0,0,0,0,0,0,0,1.4537,1.4544,1.4615,1.4594,1.4594,1.4588,1.4592,1.4629,1.4636,1.4609,1.4607,1.4612,1.4645,1.4657,1.4661,1.4719,1.467,1.4673,1.4675,1.4676,1.482,1.4821,0,0,0,0,0,0,1.4535,1.4542,1.4614,1.4616,1.4562,1.4591,1.4596,1.4614,1.4635,1.4637,1.4614,1.4611,1.4652,1.4657,1.4662,1.4726,1.4673,1.4676,1.4678,1.4818,1.482,1.4822,0,0,0,0,0,0,1.4533,1.4542,1.4612,1.4579,1.4587,1.4595,1.4616,1.4616,1.4628,1.4639,1.464,1.4625,1.4651,1.4658,1.4701,1.4727,1.4678,1.4681,1.4816,1.4819,1.4821,1.4855,0,0,0,0,0,0,1.453,1.4541,1.4562,1.458,1.4589,1.4651,1.4617,1.4618,1.4634,1.4631,1.465,1.4651,1.465,1.4696,1.4704,1.4731,1.4683,1.4813,1.4817,1.482,1.4852,1.4859,1.4865,0,0,0,0,0,1.4527,1.4571,1.4563,1.4572,1.4616,1.4652,1.4658,1.4655,1.4636,1.4657,1.4664,1.4651,1.4724,1.4701,1.471,1.4738,1.4812,1.4816,1.482,1.4849,1.4857,1.4865,0,0,0,0,0,0,1.4556,1.4573,1.4565,1.4616,1.4633,1.4648,1.4674,1.4665,1.4688,1.4684,1.468,1.4685,1.473,1.4738,1.4713,1.4791,1.4764,1.4771,1.4783,1.4792,1.4798,1.4794,1.4686,0,0,0,0,0,1.4569,1.4597,1.461,1.4653,1.4662,1.4667,1.4683,1.468,1.4697,1.4704,1.4714,1.4732,1.4758,1.4776,1.4801,1.4853,1.4856,1.4877,1.4884,1.4889,1.4894,1.492,1.4929,1.4836,1.4836,1.4836,0,0,1.4594,1.4607,1.4625,1.466,1.4672,1.4701,1.4673,1.4705,1.4726,1.4709,1.475,1.4758,1.4777,1.4825,1.4846,1.4833,1.492,1.4894,1.4898,1.49,1.4926,1.4934,1.4942,1.4839,1.4838,1.4838,0,0,1.4656,1.4669,1.4705,1.4719,1.4738,1.4741,1.475,1.4767,1.4771,1.4813,1.48,1.4825,1.4871,1.4885,1.4898,1.4964,1.4952,1.4972,1.5006,1.5032,1.5039,1.5046,1.5067,1.5076,1.4977,1.4978,1.4978,0,1.4685,1.4728,1.4726,1.4758,1.4773,1.4759,1.4795,1.4809,1.4836,1.4846,1.4831,1.4888,1.49,1.495,1.4966,1.4978,1.4987,1.4969,1.5039,1.5045,1.5051,1.5072,1.508,1.498,1.4979,1.4979,1.4979,0,1.4762,1.4792,1.482,1.4845,1.4864,1.4899,1.4901,1.4919,1.4915,1.4919,1.496,1.4974,1.5001,1.5013,1.5009,1.5062,1.5053,1.5039,1.5012,1.5062,1.5081,1.5089,1.4983,1.4982,1.4981,1.4981,0,0,1.4842,1.4866,1.4876,1.4887,1.4907,1.493,1.4964,1.499,1.5006,1.5025,1.5052,1.5091,1.5078,1.5093,1.509,1.5113,1.5162,1.5096,1.5096,1.5106,1.5219,1.5229,1.5238,1.5155,1.5157,1.5158,1.5217,0,1.4903,1.4961,1.496,1.5014,1.5041,1.5028,1.5057,1.5073,1.5078,1.5101,1.5106,1.5133,1.5114,1.5123,1.5145,1.5152,1.5185,1.5148,1.5179,1.5181,1.5173,1.5249,1.5259,1.5314,1.5225,1.5226,1.5227,0,1.4981,1.5003,1.506,1.5075,1.5086,1.5113,1.5136,1.5159,1.5176,1.5178,1.5194,1.5188,1.5221,1.5194,1.524,1.5214,1.5228,1.5233,1.5235,1.5236,1.5206,1.525,1.5332,1.5339,1.5239,1.5238,1.5238,0,1.5031,1.5075,1.5114,1.5124,1.5144,1.5162,1.5171,1.5186,1.5202,1.5223,1.5232,1.5257,1.527,1.5288,1.5288,1.5269,1.5334,1.5307,1.5335,1.5335,1.5348,1.5347,1.543,1.536,1.5359,1.5359,1.5359,0,1.5098,1.5133,1.5136,1.516,1.5198,1.5197,1.5234,1.5242,1.5255,1.528,1.5271,1.5294,1.5294,1.5317,1.5318,1.5354,1.536,1.5362,1.5361,1.5362,1.5361,1.5369,1.5364,1.5362,1.5361,1.5361,1.536,0,1.516,1.5164,1.5205,1.522,1.5225,1.5252,1.5265,1.5287,1.5292,1.5323,1.533,1.5336,1.5363,1.5366,1.5397,1.5398,1.5441,1.5437,1.5435,1.5434,1.546,1.5457,1.5551,1.5562,1.5486,1.5486,1.5487,0,1.5201,1.5228,1.5246,1.5261,1.5271,1.5297,1.5313,1.5312,1.5329,1.535,1.5369,1.5396,1.5416,1.546,1.5467,1.5491,1.5486,1.5518,1.549,1.5489,1.5485,1.5482,1.5484,1.5522,1.5523,1.5524,1.5525,0,1.5274,1.5274,1.5297,1.5321,1.534,1.5358,1.5375,1.5389,1.539,1.5409,1.5437,1.5453,1.5485,1.551,1.5533,1.5542,1.5533,1.5533,1.5541,1.554,1.5537,1.5537,1.5448,1.5531,1.553,1.553,1.5529,1.5529,1.5325,1.5347,1.5363,1.5389,1.5402,1.5418,1.5439,1.5446,1.5469,1.5495,1.5493,1.5523,1.5539,1.5569,1.558,1.5603,1.5592,1.5603,1.5606,1.5608,1.561,1.5535,1.5607,1.5607,1.5607,1.5607,1.5607,0,1.5395,1.5405,1.5429,1.5453,1.5473,1.5464,1.5482,1.5499,1.5526,1.5541,1.5562,1.5593,1.5617,1.5626,1.565,1.5667,1.5663,1.5673,1.5671,1.5673,1.5619,1.5609,1.5675,1.5675,1.5675,1.5675,1.5675,1.5675,1.5434,1.547,1.5473,1.5516,1.5525,1.5554,1.5565,1.558,1.5592,1.5627,1.5648,1.5654,1.5666,1.5691,1.5713,1.5715,1.5723,1.5734,1.5735,1.5684,1.5677,1.567,1.5661,1.5737,1.5737,1.5786,1.5787,1.5787]},{"header":{"parameterUnit":"m.s-1","parameterCategory":1,"la1":30.2991,"la2":30.254,"lo1":-89.0895,"lo2":-89.0444,"dy":0.0017,"dx":0.0017,"nx":28,"ny":28,"refTime":"2025-03-27T03:00:00:Z","depth":0,"parameterNumber":3,"parameterNumberName":"V-component_of_WINDS"},"data":[0,0,0,0,0,0,0,0,0,0,0,0,0,0,0,0,0,0,0,0,0,0,0,0,0,0,0,0,0,0,0,0,0,0,0,0,0,0,0,0,0,0,0,0,0,0,0,0,0,0,0,0,0,0,0,0,0,0,3.3184,3.3184,0,3.3171,3.3171,3.3171,3.3128,3.3127,3.3126,3.3125,3.3113,3.3113,3.3114,0,0,0,0,0,0,0,0,0,0,0,0,0,3.3172,3.3173,3.3184,3.3184,3.3184,3.3171,3.3171,3.3171,3.3128,3.3127,3.3126,3.3125,3.3113,3.3113,3.3114,0,0,0,0,0,0,0,0,0,0,0,0,0,3.317,3.3173,3.3184,3.3161,3.3159,3.3171,3.3171,3.3171,3.3129,3.3127,3.3126,3.3124,3.3112,3.3113,3.3114,3.3148,0,0,3.3117,3.3117,0,0,0,0,0,0,0,0,3.317,3.3171,3.3164,3.3162,3.316,3.315,3.3162,3.3163,3.3129,3.314,3.3125,3.3124,3.3126,3.3126,3.3127,3.3147,3.3147,3.3117,3.3117,3.3118,3.3118,0,0,0,0,0,0,0,3.3171,3.3171,3.3179,3.3164,3.3162,3.3151,3.315,3.3162,3.3141,3.3139,3.3136,3.3135,3.3125,3.3126,3.3126,3.3146,3.3117,3.3117,3.3118,3.3118,3.3193,3.3194,0,0,0,0,0,0,3.3174,3.3171,3.3179,3.3178,3.3162,3.3153,3.3151,3.3154,3.3141,3.3138,3.3136,3.3133,3.3125,3.3125,3.3125,3.3163,3.3118,3.3118,3.3119,3.3192,3.3193,3.3195,0,0,0,0,0,0,3.3174,3.3175,3.318,3.3174,3.3174,3.3154,3.3159,3.3155,3.3156,3.3139,3.3135,3.3141,3.3124,3.3124,3.3142,3.3162,3.3119,3.3119,3.319,3.3192,3.3194,3.3239,0,0,0,0,0,0,3.3174,3.3175,3.3188,3.3175,3.3174,3.3197,3.316,3.3156,3.3157,3.3153,3.3142,3.3139,3.3123,3.3141,3.3143,3.3162,3.312,3.3188,3.3191,3.3193,3.3235,3.3242,3.3248,0,0,0,0,0,3.3173,3.3201,3.3189,3.319,3.3189,3.3198,3.3198,3.3178,3.3159,3.3171,3.3161,3.314,3.316,3.3143,3.3145,3.3165,3.3187,3.319,3.3193,3.3232,3.3241,3.3248,0,0,0,0,0,0,3.3217,3.3199,3.3185,3.3209,3.3205,3.3191,3.3205,3.3188,3.3189,3.3185,3.3161,3.3159,3.318,3.3175,3.3157,3.3196,3.317,3.3174,3.3199,3.3207,3.3213,3.3213,3.3121,0,0,0,0,0,3.323,3.3238,3.3222,3.3245,3.3243,3.3225,3.3228,3.3213,3.3208,3.3207,3.3197,3.3193,3.3199,3.3203,3.3207,3.3235,3.3231,3.3249,3.3256,3.3261,3.3264,3.3278,3.3285,3.3206,3.3206,3.3206,0,0,3.3255,3.3246,3.3253,3.3253,3.3248,3.3257,3.3224,3.3235,3.3241,3.3208,3.3224,3.3217,3.3212,3.3235,3.3244,3.323,3.3285,3.3265,3.327,3.327,3.3282,3.3289,3.3296,3.3208,3.3208,3.3207,0,0,3.3306,3.3301,3.3319,3.3315,3.3308,3.3296,3.33,3.3288,3.3282,3.3298,3.3273,3.3281,3.3291,3.3287,3.3287,3.3337,3.3318,3.334,3.3372,3.3385,3.3392,3.3397,3.3414,3.342,3.3343,3.3343,3.3343,0,3.3339,3.3351,3.333,3.3342,3.3343,3.3314,3.3332,3.3329,3.3324,3.3325,3.331,3.3322,3.3316,3.3337,3.3349,3.3351,3.3354,3.334,3.3392,3.3398,3.3402,3.3418,3.3424,3.3346,3.3345,3.3345,3.3345,0,3.3391,3.34,3.3415,3.3411,3.3413,3.3428,3.341,3.3415,3.34,3.339,3.3406,3.3398,3.34,3.3404,3.339,3.3423,3.3415,3.3397,3.3369,3.3413,3.3427,3.3433,3.3349,3.3349,3.3348,3.3347,0,0,3.3467,3.3452,3.3457,3.3455,3.3445,3.3452,3.3466,3.3467,3.3472,3.347,3.348,3.349,3.3472,3.3472,3.3458,3.347,3.3509,3.345,3.345,3.346,3.3544,3.3556,3.3564,3.3497,3.3498,3.3499,3.3544,0,3.3514,3.3536,3.3518,3.3544,3.3551,3.3524,3.3536,3.3532,3.3523,3.3528,3.3518,3.3524,3.3502,3.3501,3.3512,3.3502,3.3525,3.3499,3.3506,3.3506,3.3506,3.3571,3.3585,3.3628,3.3549,3.355,3.3551,0,3.3572,3.3572,3.3598,3.3586,3.3589,3.36,3.3599,3.3605,3.36,3.3592,3.3592,3.3575,3.3587,3.3562,3.3579,3.3561,3.3564,3.3559,3.356,3.3559,3.353,3.357,3.3641,3.3647,3.356,3.3559,3.3558,0,3.3623,3.363,3.3646,3.3645,3.3633,3.3641,3.3636,3.3629,3.3631,3.3631,3.3632,3.3634,3.3635,3.3637,3.362,3.3603,3.3639,3.3612,3.3633,3.3633,3.364,3.3639,3.371,3.3644,3.3644,3.3644,3.3644,0,3.3676,3.3693,3.3669,3.3679,3.3696,3.3676,3.3694,3.3687,3.3681,3.3689,3.3667,3.3675,3.3653,3.3659,3.3647,3.3662,3.3663,3.3657,3.3653,3.3658,3.3659,3.3658,3.3654,3.3646,3.3645,3.3645,3.3645,0,3.3736,3.372,3.3736,3.3723,3.372,3.3734,3.3723,3.3731,3.3721,3.3731,3.3733,3.3716,3.3722,3.3706,3.371,3.3701,3.3723,3.3716,3.3725,3.3722,3.3742,3.374,3.3814,3.3823,3.3752,3.3753,3.3754,0,3.377,3.3782,3.377,3.3774,3.377,3.3776,3.3778,3.3759,3.3762,3.3757,3.3766,3.377,3.3771,3.3782,3.377,3.3773,3.3764,3.379,3.3764,3.3769,3.3763,3.3762,3.3762,3.3795,3.3795,3.3796,3.3797,0,3.3832,3.3823,3.3826,3.3827,3.383,3.3829,3.3827,3.3832,3.3811,3.3816,3.3821,3.3822,3.3826,3.383,3.383,3.3825,3.3807,3.3805,3.381,3.3814,3.3818,3.3815,3.3738,3.3803,3.3803,3.3802,3.3802,3.3801,3.3878,3.3887,3.3881,3.3885,3.3881,3.388,3.3887,3.3878,3.3882,3.3883,3.3872,3.3879,3.3874,3.3872,3.3869,3.3875,3.3863,3.387,3.3872,3.3873,3.3876,3.3819,3.3875,3.3875,3.3875,3.3875,3.3874,0,3.3938,3.3932,3.3936,3.3934,3.3937,3.3921,3.3918,3.3922,3.3929,3.3925,3.3927,3.3933,3.3937,3.3927,3.3929,3.3935,3.3927,3.3936,3.3935,3.3934,3.3887,3.3882,3.3943,3.3943,3.3943,3.3943,3.3943,3.3943,3.3969,3.3983,3.3974,3.3987,3.3981,3.3988,3.3988,3.3986,3.3983,3.3991,3.3994,3.3987,3.398,3.3982,3.3985,3.3981,3.3983,3.3994,3.3988,3.3944,3.3938,3.3931,3.3926,3.3995,3.3995,3.4035,3.4035,3.4035]}]]